QPF
0.00 0.00 0.00 0.00 0.00 0.00 0.00 0.00 0.00 0.00 0.00 0.00 0.00 0.00 0.00 0.00 0.00 0.00 0.00 0.00 0.00 0.00 0.00 0.00 0.00 0.00 0.00 0.00 0.00 0.00 0.00 0.00 0.00
0.00 0.00 0.00 0.00 0.00 0.00 0.00 0.00 0.00 0.00 0.00 0.00 0.00 0.00 0.00 0.00 0.00 0.00 0.00 0.00 0.00 0.00 0.00 0.00 0.00 0.00 0.00 0.00 0.00 0.00 0.00 0.00 0.00
0.00 0.00 0.00 0.00 0.00 0.00 0.00 0.00 0.00 0.00 0.00 0.00 0.00 0.00 0.00 0.00 0.00 0.00 0.00 0.00 0.00 0.00 0.00 0.00 0.00 0.00 0.00 0.00 0.00 0.00 0.00 0.00 0.00
0.00 0.00 0.00 0.00 0.00 0.00 0.00 0.00 0.00 0.00 0.00 0.00 0.00 0.00 0.00 0.00 0.00 0.00 0.00 0.00 0.00 0.00 0.00 0.00 0.00 0.00 0.00 0.00 0.00 0.00 0.00 0.00 0.00
0.00 0.00 0.00 0.00 0.00 0.00 0.00 0.00 0.00 0.00 0.00 0.00 0.00 0.00 0.00 0.00 0.00 0.00 0.00 0.00 0.00 0.00 0.00 0.00 0.00 0.00 0.00 0.00 0.00 0.00 0.00 0.00 0.00
0.00 0.00 0.00 0.00 0.00 0.00 0.00 0.00 0.00 0.00 0.00 0.00 0.00 0.00 0.00 0.00 0.00 0.00 0.00 0.00 0.00 0.00 0.00 0.00 0.00 0.00 0.00 0.00 0.00 0.00 0.00 0.00 0.00
0.00 0.00 0.00 0.00 0.00 0.00 0.00 0.00 0.00 0.00 0.00 0.00 0.00 0.00 0.00 0.00 0.00 0.00 0.00 0.00 0.00 0.00 0.00 0.00 0.00 0.00 0.00 0.00 0.00 0.00 0.00 0.00 0.00
0.00 0.00 0.00 0.00 0.00 0.00 0.00 0.00 0.00 0.00 0.00 0.00 0.00 0.00 0.00 0.00 0.00 0.00 0.00 0.00 0.00 0.00 0.00 0.00 0.00 0.00 0.00 0.00 0.00 0.00 0.00 0.00 0.00
0.00 0.00 0.00 0.00 0.00 0.00 0.00 0.00 0.00 0.00 0.00 0.00 0.00 0.00 0.00 0.00 0.00 0.00 0.00 0.00 0.00 0.00 0.00 0.00 0.00 0.00 0.00 0.00 0.00 0.00 0.00 0.00 0.00
0.00 0.00 0.00 0.00 0.00 0.00 0.00 0.00 0.00 0.00 0.00 0.00 0.00 0.00 0.00 0.00 0.00 0.00 0.00 0.00 0.00 0.00 0.00 0.00 0.01 0.03 0.05 0.08 0.04 0.01 0.00 0.00 0.00
0.00 0.00 0.00 0.00 0.00 0.00 0.00 0.00 0.00 0.00 0.00 0.00 0.00 0.00 0.00 0.00 0.00 0.00 0.00 0.00 0.00 0.00 0.00 0.01 0.02 0.06 0.05 0.02 0.02 0.03 0.03 0.01 0.00
0.00 0.00 0.00 0.00 0.00 0.00 0.00 0.00 0.00 0.00 0.00 0.00 0.00 0.00 0.00 0.00 0.00 0.00 0.00 0.00 0.00 0.00 0.00 0.00 0.02 0.04 0.01 0.02 0.04 0.03 0.03 0.03 0.07
0.00 0.00 0.00 0.00 0.00 0.00 0.00 0.00 0.00 0.00 0.00 0.00 0.00 0.00 0.00 0.00 0.00 0.00 0.00 0.00 0.00 0.00 0.00 0.00 0.01 0.01 0.01 0.04 0.03 0.00 0.00 0.00 0.01
0.00 0.00 0.00 0.00 0.00 0.00 0.00 0.00 0.00 0.00 0.00 0.00 0.00 0.00 0.00 0.00 0.00 0.00 0.00 0.00 0.00 0.00 0.00 0.00 0.00 0.00 0.01 0.01 0.00 0.00 0.00 0.00 0.00
0.00 0.00 0.00 0.00 0.00 0.00 0.00 0.00 0.00 0.00 0.00 0.00 0.00 0.00 0.00 0.00 0.00 0.00 0.00 0.00 0.00 0.00 0.00 0.00 0.00 0.00 0.00 0.00 0.00 0.00 0.00 0.00 0.00
0.00 0.00 0.00 0.00 0.00 0.00 0.00 0.00 0.00 0.00 0.00 0.01 0.00 0.00 0.00 0.00 0.00 0.00 0.00 0.00 0.00 0.00 0.00 0.00 0.00 0.00 0.00 0.00 0.00 0.00 0.00 0.00 0.00
0.00 0.00 0.00 0.00 0.01 0.00 0.00 0.00 0.01 0.00 0.00 0.00 0.00 0.00 0.00 0.00 0.00 0.00 0.00 0.00 0.00 0.00 0.00 0.00 0.00 0.00 0.00 0.00 0.00 0.00 0.00 0.00 0.00
0.03 0.08 0.13 0.15 0.10 0.06 0.05 0.01 0.00 0.00 0.00 0.00 0.00 0.00 0.00 0.00 0.00 0.00 0.00 0.00 0.00 0.00 0.00 0.00 0.00 0.00 0.00 0.00 0.00 0.00 0.00 0.00 0.00
0.20 0.18 0.12 0.05 0.05 0.08 0.05 0.01 0.00 0.00 0.00 0.00 0.00 0.00 0.00 0.00 0.00 0.00 0.00 0.00 0.00 0.00 0.00 0.00 0.00 0.00 0.00 0.00 0.00 0.00 0.00 0.00 0.00
0.21 0.18 0.10 0.07 0.07 0.09 0.05 0.01 0.00 0.00 0.00 0.00 0.00 0.00 0.00 0.00 0.00 0.00 0.00 0.00 0.00 0.00 0.00 0.00 0.00 0.00 0.00 0.00 0.00 0.00 0.00 0.00 0.00
MSLP
1017.82 1018.11 1018.44 1018.66 1018.89 1019.07 1019.18 1019.40 1019.55 1019.66 1019.74 1019.86 1019.97 1020.27 1020.41 1020.53 1020.53 1020.55 1020.46 1020.44 1020.24 1020.29 1020.26 1020.18 1020.11 1020.04 1019.99 1020.06 1020.10 1020.15 1020.27 1020.22 1020.18
1018.12 1018.37 1018.62 1018.80 1019.05 1019.19 1019.37 1019.52 1019.78 1019.90 1020.03 1020.07 1020.23 1020.51 1020.60 1020.85 1020.83 1020.79 1020.73 1020.63 1020.52 1020.56 1020.51 1020.57 1020.58 1020.50 1020.51 1020.49 1020.43 1020.43 1020.38 1020.36 1020.36
1018.40 1018.71 1018.95 1019.10 1019.29 1019.41 1019.55 1019.70 1019.94 1020.02 1020.22 1020.31 1020.46 1020.74 1020.73 1020.92 1020.98 1021.03 1020.90 1020.69 1020.73 1020.82 1020.80 1020.85 1020.87 1020.83 1020.78 1020.79 1020.78 1020.70 1020.62 1020.56 1020.50
1018.85 1019.03 1019.24 1019.42 1019.55 1019.70 1019.86 1019.93 1020.07 1020.18 1020.32 1020.55 1020.74 1020.83 1020.97 1021.10 1021.17 1021.08 1021.16 1020.85 1020.89 1020.98 1021.08 1021.08 1021.14 1021.09 1021.00 1021.03 1021.07 1021.03 1020.91 1020.84 1020.77
1019.22 1019.36 1019.48 1019.72 1019.89 1020.12 1020.13 1020.27 1020.31 1020.44 1020.55 1020.64 1020.80 1020.95 1021.08 1021.19 1021.22 1021.25 1021.28 1021.01 1021.09 1021.12 1021.23 1021.26 1021.32 1021.31 1021.25 1021.30 1021.36 1021.28 1021.22 1021.14 1021.07
1019.53 1019.65 1019.71 1019.92 1020.10 1020.24 1020.36 1020.40 1020.54 1020.69 1020.81 1020.83 1020.85 1020.97 1021.24 1021.35 1021.29 1021.33 1021.21 1021.06 1021.08 1021.23 1021.37 1021.42 1021.43 1021.44 1021.36 1021.45 1021.50 1021.39 1021.25 1021.18 1021.10
1019.79 1019.87 1019.91 1020.11 1020.22 1020.36 1020.42 1020.51 1020.60 1020.81 1021.01 1021.04 1021.10 1021.20 1021.21 1021.28 1021.26 1021.23 1021.13 1021.03 1020.98 1021.12 1021.32 1021.40 1021.38 1021.40 1021.38 1021.47 1021.53 1021.46 1021.36 1021.33 1021.25
1020.02 1020.17 1020.26 1020.31 1020.40 1020.62 1020.70 1020.81 1020.87 1020.87 1021.00 1021.10 1021.16 1021.20 1021.17 1021.18 1021.18 1021.12 1021.04 1020.97 1020.86 1020.82 1021.00 1021.16 1021.19 1021.23 1021.33 1021.43 1021.50 1021.45 1021.41 1021.41 1021.40
1020.10 1020.28 1020.44 1020.57 1020.65 1020.73 1020.92 1021.01 1021.04 1020.99 1020.99 1021.06 1021.09 1021.10 1021.11 1021.19 1021.19 1021.11 1020.99 1020.88 1020.72 1020.67 1020.71 1020.78 1020.85 1020.88 1021.07 1021.26 1021.37 1021.41 1021.39 1021.38 1021.34
1019.96 1020.20 1020.41 1020.55 1020.66 1020.77 1020.87 1021.07 1021.09 1021.12 1021.10 1021.04 1021.04 1021.07 1021.06 1021.05 1021.07 1021.01 1020.90 1020.80 1020.63 1020.58 1020.54 1020.50 1020.42 1020.56 1020.73 1020.80 1020.90 1021.01 1020.98 1021.04 1021.10
1019.63 1019.99 1020.24 1020.41 1020.47 1020.61 1020.78 1020.90 1021.00 1021.01 1021.04 1020.89 1020.83 1020.88 1020.94 1020.87 1020.79 1020.73 1020.67 1020.60 1020.48 1020.36 1020.34 1020.29 1020.20 1020.33 1020.37 1020.43 1020.57 1020.69 1020.67 1020.69 1020.78
1019.27 1019.56 1019.88 1019.97 1020.24 1020.47 1020.67 1020.87 1020.99 1020.98 1021.01 1021.02 1020.78 1020.68 1020.64 1020.58 1020.48 1020.38 1020.32 1020.27 1020.28 1020.33 1020.21 1020.08 1019.95 1020.13 1020.17 1020.34 1020.50 1020.57 1020.64 1020.64 1020.52
1019.07 1019.39 1019.55 1019.61 1020.04 1020.32 1020.49 1020.66 1020.91 1020.93 1020.93 1020.86 1020.57 1020.33 1020.13 1019.91 1019.83 1019.89 1019.89 1019.83 1019.90 1019.95 1019.87 1019.96 1019.98 1020.11 1020.13 1020.21 1020.42 1020.84 1020.86 1020.75 1020.72
1018.48 1018.81 1019.05 1019.35 1019.79 1020.17 1020.29 1020.49 1020.56 1020.65 1020.56 1020.39 1020.23 1019.98 1019.86 1019.68 1019.75 1019.84 1019.90 1019.85 1019.72 1019.72 1019.75 1019.83 1019.94 1020.06 1020.10 1020.27 1020.54 1020.87 1021.03 1020.93 1020.89
1017.83 1018.25 1018.65 1018.99 1019.33 1019.75 1019.99 1020.15 1020.21 1020.08 1020.08 1020.05 1019.93 1019.95 1019.99 1019.85 1019.96 1019.98 1019.83 1019.64 1019.60 1019.67 1019.79 1020.01 1020.21 1020.15 1020.30 1020.50 1020.60 1020.67 1020.83 1020.84 1020.80
1017.12 1017.66 1018.18 1018.49 1018.95 1019.19 1019.42 1019.67 1019.81 1019.81 1019.88 1020.07 1020.16 1020.07 1019.96 1020.03 1020.07 1020.09 1020.03 1019.79 1019.81 1019.97 1020.23 1020.49 1020.69 1020.82 1020.77 1021.01 1021.09 1020.97 1020.85 1020.76 1020.72
1016.36 1016.94 1017.68 1017.73 1018.27 1018.78 1018.95 1019.23 1019.39 1019.49 1019.65 1020.04 1020.33 1020.51 1020.50 1020.37 1020.33 1020.35 1020.43 1020.19 1020.21 1020.54 1020.91 1021.15 1021.41 1021.67 1021.57 1021.67 1021.67 1021.43 1021.32 1021.01 1020.87
1016.05 1016.47 1017.17 1017.76 1018.09 1018.57 1018.79 1018.88 1019.09 1019.67 1020.16 1020.10 1020.49 1020.74 1021.23 1021.18 1020.86 1020.89 1020.77 1020.81 1020.68 1021.00 1021.33 1021.57 1021.93 1022.08 1021.99 1022.06 1021.99 1021.75 1021.51 1021.10 1020.85
1016.69 1016.79 1017.05 1017.22 1017.51 1018.14 1018.90 1018.98 1019.07 1019.67 1020.11 1020.44 1020.40 1020.70 1021.02 1021.16 1021.47 1021.51 1021.40 1021.51 1021.47 1021.63 1021.75 1022.06 1022.16 1022.14 1022.22 1022.44 1022.16 1021.90 1021.60 1021.22 1020.95
1017.07 1017.44 1017.76 1018.34 1018.62 1018.37 1019.10 1019.13 1019.49 1019.71 1020.26 1020.60 1020.74 1020.88 1021.01 1021.31 1021.68 1021.73 1021.87 1022.01 1022.06 1022.22 1022.22 1022.31 1022.50 1022.69 1022.54 1022.56 1022.43 1022.11 1021.83 1021.16 1021.03
Thickness
5724 5722 5720 5718 5717 5715 5715 5713 5712 5711 5710 5709 5708 5706 5705 5705 5705 5704 5703 5702 5701 5699 5697 5696 5694 5692 5691 5688 5685 5683 5680 5677 5675
5720 5719 5717 5716 5714 5714 5713 5712 5710 5709 5707 5707 5705 5704 5704 5701 5702 5702 5700 5698 5697 5695 5694 5692 5689 5687 5685 5682 5681 5679 5677 5675 5672
5716 5714 5713 5712 5711 5711 5711 5710 5708 5707 5705 5704 5703 5701 5701 5700 5700 5699 5698 5696 5694 5692 5691 5689 5685 5683 5682 5679 5676 5675 5673 5671 5669
5710 5710 5709 5708 5707 5707 5707 5707 5706 5706 5705 5703 5701 5700 5699 5698 5697 5696 5694 5694 5692 5689 5686 5685 5682 5680 5678 5674 5671 5669 5667 5665 5663
5704 5705 5705 5703 5703 5702 5703 5703 5704 5703 5702 5702 5700 5698 5697 5696 5695 5694 5692 5691 5688 5686 5683 5681 5678 5675 5673 5669 5666 5664 5661 5659 5657
5699 5701 5701 5700 5699 5699 5699 5700 5700 5699 5699 5699 5699 5698 5695 5693 5693 5691 5690 5689 5686 5683 5680 5677 5675 5672 5669 5665 5662 5660 5658 5656 5654
5695 5696 5697 5696 5696 5696 5696 5697 5697 5697 5696 5696 5695 5695 5694 5693 5691 5690 5689 5687 5685 5682 5678 5675 5672 5669 5666 5663 5659 5657 5654 5651 5649
5690 5691 5692 5693 5693 5693 5692 5693 5693 5694 5693 5692 5692 5691 5691 5691 5690 5688 5687 5685 5683 5681 5678 5674 5670 5667 5663 5660 5656 5654 5650 5647 5644
5687 5688 5688 5688 5689 5690 5689 5689 5688 5689 5689 5689 5689 5689 5688 5686 5686 5685 5684 5683 5681 5678 5675 5673 5669 5666 5662 5657 5653 5650 5647 5643 5641
5685 5685 5685 5686 5685 5686 5686 5685 5685 5685 5685 5686 5686 5685 5685 5684 5682 5682 5680 5680 5678 5676 5674 5671 5668 5664 5659 5655 5651 5647 5645 5641 5638
5685 5683 5683 5683 5683 5683 5682 5682 5681 5682 5682 5683 5683 5682 5681 5680 5680 5679 5678 5676 5675 5673 5671 5669 5665 5662 5658 5653 5649 5645 5642 5638 5634
5683 5683 5681 5682 5681 5680 5679 5678 5677 5677 5676 5677 5678 5679 5677 5677 5677 5677 5677 5675 5672 5669 5667 5665 5662 5658 5654 5650 5645 5641 5637 5633 5631
5680 5679 5679 5680 5677 5676 5676 5675 5673 5672 5671 5672 5674 5675 5675 5675 5675 5674 5674 5674 5671 5667 5664 5661 5657 5652 5649 5644 5640 5633 5630 5628 5625
5679 5678 5678 5676 5672 5670 5670 5669 5669 5667 5668 5670 5671 5672 5672 5672 5671 5670 5669 5667 5667 5664 5661 5657 5653 5648 5643 5638 5633 5627 5622 5621 5617
5680 5678 5675 5672 5670 5667 5665 5664 5665 5666 5666 5666 5666 5666 5664 5665 5663 5663 5663 5663 5661 5658 5655 5650 5645 5641 5636 5631 5625 5622 5617 5615 5613
5680 5676 5672 5669 5666 5664 5663 5661 5659 5659 5659 5658 5656 5658 5658 5657 5658 5656 5655 5655 5653 5649 5645 5640 5635 5630 5627 5621 5615 5613 5611 5610 5607
5681 5675 5668 5668 5665 5660 5657 5655 5654 5652 5651 5648 5649 5644 5646 5647 5648 5647 5645 5645 5642 5637 5632 5627 5622 5617 5614 5609 5605 5603 5601 5600 5599
5674 5671 5663 5657 5655 5650 5647 5648 5648 5642 5638 5640 5638 5637 5631 5632 5636 5635 5635 5633 5631 5626 5621 5616 5608 5605 5602 5598 5595 5593 5593 5594 5594
5659 5657 5654 5651 5650 5647 5641 5642 5641 5635 5632 5630 5631 5628 5627 5628 5626 5622 5622 5620 5619 5614 5609 5603 5599 5596 5592 5587 5585 5584 5584 5586 5586
5648 5644 5640 5634 5631 5638 5631 5631 5629 5628 5624 5622 5621 5619 5617 5614 5612 5613 5610 5605 5603 5600 5596 5593 5587 5582 5580 5577 5575 5574 5574 5578 5577